| time (UTC) | temp C | wind direction | speed KPH | gust KPH | rain 1hr cm | rain 24hr cm | rain mn cm | humidity % | barometer mb |
| 20260509013504 | 17 | 228 | 3.2 | 9.7 | 0.00 | 0.10 | 0.03 | 77 | 1029.3 |
| 20260509013004 | 17 | 208 | 1.6 | 9.7 | 0.00 | 0.10 | 0.03 | 76 | 1029.3 |
| 20260509012504 | 17 | 208 | 1.6 | 9.7 | 0.00 | 0.10 | 0.03 | 78 | 1029.3 |
| 20260509012004 | 17 | 206 | 1.6 | 8.0 | 0.00 | 0.10 | 0.03 | 80 | 1029.3 |
| 20260509011524 | 16 | 221 | 3.2 | 9.7 | 0.00 | 0.10 | 0.03 | 81 | 1029.4 |
| 20260509011004 | 16 | 212 | 4.8 | 12.9 | 0.00 | 0.10 | 0.03 | 82 | 1029.4 |
| 20260509010504 | 16 | 231 | 4.8 | 12.9 | 0.00 | 0.10 | 0.03 | 83 | 1029.4 |
| 20260509010004 | 16 | 237 | 4.8 | 9.7 | 0.00 | 0.10 | 0.03 | 83 | 1029.4 |
| 20260509005525 | 16 | 220 | 3.2 | 9.7 | 0.00 | 0.10 | 0.03 | 83 | 1029.4 |
| 20260509005003 | 16 | 222 | 3.2 | 9.7 | 0.00 | 0.10 | 0.03 | 84 | 1029.4 |
| 20260509004503 | 16 | 250 | 4.8 | 12.9 | 0.00 | 0.10 | 0.03 | 85 | 1029.4 |
| 20260509004003 | 15 | 255 | 3.2 | 12.9 | 0.00 | 0.10 | 0.03 | 86 | 1029.5 |
| 20260509003504 | 15 | 254 | 3.2 | 9.7 | 0.00 | 0.10 | 0.03 | 86 | 1029.4 |
| 20260509003024 | 15 | 240 | 3.2 | 9.7 | 0.00 | 0.10 | 0.03 | 87 | 1029.4 |
| 20260509002504 | 15 | 223 | 4.8 | 12.9 | 0.00 | 0.10 | 0.03 | 88 | 1029.4 |
| 20260509002004 | 15 | 225 | 4.8 | 12.9 | 0.00 | 0.10 | 0.03 | 89 | 1029.4 |
| 20260509001524 | 15 | 243 | 4.8 | 9.7 | 0.00 | 0.10 | 0.03 | 90 | 1029.4 |
| 20260509001004 | 15 | 249 | 4.8 | 9.7 | 0.00 | 0.10 | 0.03 | 90 | 1029.5 |
| 20260509000503 | 15 | 225 | 4.8 | 12.9 | 0.00 | 0.10 | 0.03 | 91 | 1029.5 |
| 20260509000004 | 15 | 206 | 3.2 | 12.9 | 0.00 | 0.10 | 0.03 | 91 | 1029.6 |
| 20260508235525 | 15 | 191 | 1.6 | 12.9 | 0.00 | 0.10 | 0.03 | 92 | 1029.5 |
| 20260508235024 | 14 | 179 | 0.0 | 8.0 | 0.00 | 0.10 | 0.03 | 92 | 1029.5 |
| 20260508234503 | 14 | 0 | 0.0 | 0.0 | 0.00 | 0.10 | 0.03 | 92 | 1029.6 |
| 20260508234004 | 13 | 0 | 0.0 | 0.0 | 0.00 | 0.10 | 0.03 | 92 | 1029.7 |
| 20260508233524 | 13 | 0 | 0.0 | 0.0 | 0.00 | 0.10 | 0.03 | 93 | 1029.6 |
| 20260508233004 | 13 | 0 | 0.0 | 0.0 | 0.00 | 0.10 | 0.03 | 93 | 1029.6 |
| 20260508232504 | 13 | 0 | 0.0 | 0.0 | 0.00 | 0.10 | 0.03 | 93 | 1029.6 |
| 20260508232003 | 13 | 0 | 0.0 | 0.0 | 0.00 | 0.10 | 0.03 | 93 | 1029.5 |
| 20260508231503 | 13 | 0 | 0.0 | 0.0 | 0.00 | 0.10 | 0.03 | 93 | 1029.5 |
| 20260508231003 | 13 | 0 | 0.0 | 0.0 | 0.00 | 0.10 | 0.03 | 93 | 1029.4 |
| 20260508230503 | 12 | 0 | 0.0 | 0.0 | 0.00 | 0.10 | 0.03 | 93 | 1029.3 |
| 20260508230004 | 12 | 0 | 0.0 | 0.0 | 0.00 | 0.10 | 0.03 | 93 | 1029.3 |
| 20260508225504 | 12 | 0 | 0.0 | 0.0 | 0.00 | 0.10 | 0.03 | 92 | 1029.4 |
| 20260508225003 | 12 | 0 | 0.0 | 0.0 | 0.00 | 0.10 | 0.03 | 92 | 1029.3 |
| 20260508224503 | 12 | 0 | 0.0 | 0.0 | 0.00 | 0.10 | 0.03 | 93 | 1029.3 |
| 20260508224004 | 12 | 0 | 0.0 | 0.0 | 0.00 | 0.10 | 0.03 | 93 | 1029.2 |
| 20260508223524 | 12 | 0 | 0.0 | 0.0 | 0.00 | 0.10 | 0.03 | 93 | 1029.1 |
| 20260508223003 | 12 | 0 | 0.0 | 0.0 | 0.00 | 0.10 | 0.03 | 93 | 1029.1 |
| 20260508222503 | 12 | 0 | 0.0 | 0.0 | 0.00 | 0.10 | 0.03 | 93 | 1029.1 |
| 20260508222004 | 12 | 0 | 0.0 | 0.0 | 0.00 | 0.10 | 0.03 | 93 | 1029.1 |
| 20260508221524 | 12 | 0 | 0.0 | 0.0 | 0.00 | 0.10 | 0.03 | 93 | 1029.1 |
| 20260508221024 | 12 | 0 | 0.0 | 0.0 | 0.00 | 0.10 | 0.03 | 93 | 1029.1 |
| 20260508220503 | 12 | 0 | 0.0 | 0.0 | 0.00 | 0.10 | 0.03 | 93 | 1029.1 |
| 20260508220003 | 12 | 0 | 0.0 | 0.0 | 0.00 | 0.10 | 0.03 | 93 | 1029.0 |
| 20260508215503 | 12 | 0 | 0.0 | 0.0 | 0.00 | 0.10 | 0.03 | 93 | 1029.0 |
| 20260508215025 | 12 | 0 | 0.0 | 0.0 | 0.00 | 0.10 | 0.03 | 93 | 1028.9 |
| 20260508214524 | 11 | 0 | 0.0 | 0.0 | 0.00 | 0.10 | 0.03 | 93 | 1029.0 |
| 20260508214025 | 11 | 0 | 0.0 | 0.0 | 0.00 | 0.10 | 0.03 | 93 | 1028.9 |
| 20260508213503 | 11 | 0 | 0.0 | 0.0 | 0.00 | 0.10 | 0.03 | 92 | 1028.9 |
| 20260508213003 | 11 | 98 | 1.6 | 4.8 | 0.00 | 0.10 | 0.03 | 92 | 1028.8 |
| 20260508212503 | 11 | 98 | 1.6 | 4.8 | 0.00 | 0.10 | 0.03 | 92 | 1028.7 |
| 20260508212003 | 11 | 98 | 0.0 | 4.8 | 0.00 | 0.10 | 0.03 | 92 | 1028.7 |
| 20260508211503 | 11 | 98 | 0.0 | 4.8 | 0.00 | 0.10 | 0.03 | 92 | 1028.6 |
| 20260508211003 | 11 | 0 | 0.0 | 0.0 | 0.00 | 0.10 | 0.03 | 92 | 1028.6 |
| 20260508210503 | 11 | 0 | 0.0 | 0.0 | 0.00 | 0.10 | 0.03 | 92 | 1028.5 |
| 20260508210003 | 11 | 0 | 0.0 | 0.0 | 0.00 | 0.10 | 0.03 | 92 | 1028.5 |
| 20260508205504 | 11 | 98 | 0.0 | 1.6 | 0.00 | 0.10 | 0.03 | 92 | 1028.5 |
| 20260508205003 | 11 | 98 | 1.6 | 4.8 | 0.00 | 0.10 | 0.03 | 92 | 1028.6 |
| 20260508204503 | 11 | 98 | 3.2 | 8.0 | 0.00 | 0.10 | 0.03 | 92 | 1028.5 |
| 20260508204003 | 11 | 98 | 4.8 | 8.0 | 0.00 | 0.10 | 0.03 | 92 | 1028.4 |
| 20260508203503 | 11 | 98 | 6.4 | 8.0 | 0.00 | 0.10 | 0.03 | 92 | 1028.4 |
| 20260508203004 | 11 | 99 | 6.4 | 12.9 | 0.00 | 0.10 | 0.03 | 92 | 1028.3 |
| 20260508202525 | 11 | 98 | 6.4 | 12.9 | 0.00 | 0.10 | 0.03 | 92 | 1028.3 |
| 20260508202004 | 11 | 98 | 6.4 | 8.0 | 0.00 | 0.10 | 0.03 | 92 | 1028.2 |
| 20260508201504 | 11 | 98 | 6.4 | 9.7 | 0.00 | 0.10 | 0.03 | 92 | 1028.2 |
| 20260508201004 | 11 | 100 | 6.4 | 9.7 | 0.00 | 0.10 | 0.03 | 92 | 1028.1 |
| 20260508200525 | 11 | 100 | 6.4 | 9.7 | 0.00 | 0.10 | 0.03 | 92 | 1028.1 |
| 20260508200004 | 11 | 96 | 6.4 | 9.7 | 0.00 | 0.10 | 0.03 | 92 | 1028.1 |
| 20260508195504 | 11 | 92 | 6.4 | 9.7 | 0.00 | 0.10 | 0.03 | 92 | 1028.0 |
| 20260508195025 | 11 | 93 | 4.8 | 9.7 | 0.00 | 0.10 | 0.03 | 92 | 1028.0 |
| 20260508194525 | 11 | 100 | 4.8 | 9.7 | 0.00 | 0.10 | 0.03 | 92 | 1028.0 |
| 20260508194004 | 11 | 97 | 4.8 | 9.7 | 0.00 | 0.10 | 0.03 | 92 | 1028.0 |
| 20260508193504 | 11 | 92 | 8.0 | 9.7 | 0.00 | 0.10 | 0.03 | 92 | 1027.9 |
| 20260508193004 | 11 | 95 | 8.0 | 12.9 | 0.00 | 0.10 | 0.03 | 92 | 1027.9 |
| 20260508192504 | 11 | 98 | 8.0 | 14.5 | 0.00 | 0.10 | 0.03 | 92 | 1027.9 |
| 20260508192004 | 11 | 100 | 8.0 | 14.5 | 0.00 | 0.10 | 0.03 | 92 | 1027.9 |
| 20260508191525 | 11 | 99 | 8.0 | 9.7 | 0.00 | 0.10 | 0.03 | 92 | 1027.8 |
| 20260508191004 | 11 | 98 | 8.0 | 9.7 | 0.00 | 0.10 | 0.03 | 92 | 1027.7 |
| 20260508190504 | 11 | 101 | 6.4 | 9.7 | 0.00 | 0.10 | 0.03 | 92 | 1027.7 |
| 20260508190004 | 11 | 106 | 4.8 | 9.7 | 0.00 | 0.10 | 0.03 | 92 | 1027.6 |
| 20260508185504 | 11 | 108 | 4.8 | 8.0 | 0.00 | 0.10 | 0.03 | 92 | 1027.7 |
| 20260508185004 | 11 | 107 | 6.4 | 8.0 | 0.00 | 0.10 | 0.03 | 92 | 1027.7 |
| 20260508184504 | 11 | 105 | 6.4 | 9.7 | 0.00 | 0.10 | 0.03 | 92 | 1027.7 |
| 20260508184004 | 11 | 103 | 6.4 | 9.7 | 0.00 | 0.10 | 0.03 | 92 | 1027.7 |
| 20260508183504 | 11 | 104 | 4.8 | 9.7 | 0.00 | 0.10 | 0.03 | 92 | 1027.7 |
| 20260508183004 | 11 | 106 | 4.8 | 9.7 | 0.00 | 0.10 | 0.03 | 92 | 1027.8 |
| 20260508182525 | 11 | 105 | 6.4 | 9.7 | 0.00 | 0.10 | 0.03 | 92 | 1027.9 |
| 20260508182025 | 11 | 101 | 6.4 | 9.7 | 0.00 | 0.10 | 0.03 | 92 | 1027.9 |
| 20260508181504 | 11 | 98 | 4.8 | 9.7 | 0.00 | 0.10 | 0.03 | 92 | 1028.0 |
| 20260508181004 | 11 | 98 | 4.8 | 8.0 | 0.00 | 0.10 | 0.03 | 92 | 1028.0 |
| 20260508180504 | 11 | 98 | 4.8 | 8.0 | 0.00 | 0.10 | 0.03 | 92 | 1028.0 |
| 20260508180004 | 11 | 98 | 4.8 | 9.7 | 0.00 | 0.10 | 0.03 | 92 | 1028.0 |
| 20260508175525 | 11 | 98 | 6.4 | 9.7 | 0.00 | 0.10 | 0.03 | 92 | 1028.0 |
| 20260508175004 | 11 | 98 | 6.4 | 9.7 | 0.00 | 0.10 | 0.03 | 92 | 1028.0 |
| 20260508174504 | 11 | 98 | 4.8 | 9.7 | 0.00 | 0.10 | 0.03 | 92 | 1028.1 |
| 20260508174025 | 11 | 98 | 4.8 | 9.7 | 0.00 | 0.10 | 0.03 | 92 | 1028.1 |
| 20260508173525 | 11 | 98 | 4.8 | 9.7 | 0.00 | 0.10 | 0.03 | 92 | 1028.1 |
| 20260508173004 | 10 | 98 | 6.4 | 8.0 | 0.00 | 0.10 | 0.03 | 92 | 1028.2 |
| 20260508172504 | 10 | 101 | 6.4 | 9.7 | 0.00 | 0.10 | 0.03 | 91 | 1028.2 |
| 20260508172004 | 10 | 92 | 6.4 | 9.7 | 0.00 | 0.10 | 0.03 | 91 | 1028.2 |
| 20260508171525 | 10 | 78 | 6.4 | 8.0 | 0.00 | 0.10 | 0.03 | 91 | 1028.2 |
| 20260508171025 | 11 | 82 | 4.8 | 8.0 | 0.00 | 0.10 | 0.03 | 91 | 1028.2 |
| 20260508170504 | 11 | 88 | 4.8 | 8.0 | 0.00 | 0.10 | 0.03 | 91 | 1028.1 |
| 20260508170004 | 11 | 88 | 6.4 | 8.0 | 0.00 | 0.10 | 0.03 | 91 | 1028.1 |
| 20260508165525 | 11 | 88 | 6.4 | 9.7 | 0.00 | 0.10 | 0.03 | 91 | 1028.1 |
| 20260508165004 | 11 | 88 | 6.4 | 9.7 | 0.00 | 0.10 | 0.03 | 91 | 1028.1 |
| 20260508164504 | 11 | 88 | 6.4 | 9.7 | 0.00 | 0.10 | 0.03 | 91 | 1028.1 |
| 20260508164025 | 11 | 88 | 6.4 | 8.0 | 0.00 | 0.10 | 0.03 | 91 | 1028.1 |
| 20260508163504 | 11 | 88 | 6.4 | 8.0 | 0.00 | 0.10 | 0.03 | 91 | 1028.1 |
| 20260508163004 | 11 | 90 | 8.0 | 9.7 | 0.00 | 0.10 | 0.03 | 91 | 1028.0 |
| 20260508162504 | 11 | 93 | 6.4 | 12.9 | 0.00 | 0.10 | 0.03 | 91 | 1028.1 |
| 20260508162004 | 11 | 94 | 3.2 | 12.9 | 0.00 | 0.10 | 0.03 | 90 | 1028.1 |
| 20260508161504 | 11 | 95 | 0.0 | 12.9 | 0.00 | 0.10 | 0.03 | 90 | 1028.0 |
| 20260508161004 | 11 | 0 | 0.0 | 0.0 | 0.03 | 0.10 | 0.03 | 90 | 1028.0 |
| 20260508160525 | 11 | 0 | 0.0 | 0.0 | 0.03 | 0.10 | 0.03 | 90 | 1028.1 |
| 20260508160004 | 11 | 0 | 0.0 | 0.0 | 0.03 | 0.10 | 0.03 | 90 | 1028.1 |
| 20260508155504 | 11 | 0 | 0.0 | 0.0 | 0.03 | 0.10 | 0.03 | 90 | 1028.1 |
| 20260508155004 | 11 | 0 | 0.0 | 0.0 | 0.03 | 0.10 | 0.03 | 90 | 1028.1 |
| 20260508154504 | 11 | 0 | 0.0 | 0.0 | 0.03 | 0.10 | 0.03 | 89 | 1028.1 |
| 20260508154004 | 11 | 0 | 0.0 | 0.0 | 0.03 | 0.10 | 0.03 | 89 | 1028.2 |
| 20260508153504 | 11 | 0 | 0.0 | 0.0 | 0.03 | 0.10 | 0.03 | 89 | 1028.2 |
| 20260508153004 | 11 | 0 | 0.0 | 0.0 | 0.03 | 0.10 | 0.03 | 89 | 1028.1 |
| 20260508152525 | 11 | 0 | 0.0 | 0.0 | 0.03 | 0.10 | 0.03 | 89 | 1028.1 |
| 20260508152004 | 12 | 0 | 0.0 | 0.0 | 0.03 | 0.10 | 0.03 | 89 | 1028.1 |
| 20260508151504 | 12 | 0 | 0.0 | 0.0 | 0.03 | 0.10 | 0.03 | 89 | 1028.2 |
| 20260508151025 | 12 | 0 | 0.0 | 0.0 | 0.00 | 0.08 | 0.00 | 89 | 1028.2 |
| 20260508150504 | 12 | 0 | 0.0 | 0.0 | 0.00 | 0.08 | 0.00 | 89 | 1028.2 |
| 20260508150004 | 12 | 0 | 0.0 | 0.0 | 0.00 | 0.08 | 0.00 | 89 | 1028.2 |
| 20260508145504 | 12 | 0 | 0.0 | 0.0 | 0.00 | 0.08 | 0.00 | 89 | 1028.2 |
| 20260508145004 | 12 | 0 | 0.0 | 0.0 | 0.00 | 0.08 | 0.00 | 89 | 1028.2 |
| 20260508144504 | 12 | 0 | 0.0 | 0.0 | 0.00 | 0.08 | 0.00 | 89 | 1028.2 |
| 20260508144025 | 12 | 0 | 0.0 | 0.0 | 0.00 | 0.08 | 0.00 | 89 | 1028.3 |
| 20260508143503 | 12 | 0 | 0.0 | 0.0 | 0.00 | 0.08 | 0.00 | 89 | 1028.3 |
| 20260508143005 | 12 | 208 | 0.0 | 4.8 | 0.00 | 0.08 | 0.00 | 89 | 1028.3 |
| 20260508142504 | 12 | 204 | 0.0 | 4.8 | 0.00 | 0.08 | 0.08 | 89 | 1028.3 |
| 20260508142004 | 12 | 190 | 0.0 | 4.8 | 0.00 | 0.08 | 0.08 | 89 | 1028.4 |
| 20260508141504 | 12 | 190 | 0.0 | 4.8 | 0.00 | 0.08 | 0.08 | 89 | 1028.4 |
| 20260508141025 | 12 | 0 | 0.0 | 0.0 | 0.00 | 0.08 | 0.08 | 89 | 1028.4 |
| 20260508140504 | 12 | 0 | 0.0 | 0.0 | 0.00 | 0.08 | 0.08 | 89 | 1028.3 |
| 20260508140004 | 12 | 0 | 0.0 | 0.0 | 0.00 | 0.08 | 0.08 | 89 | 1028.4 |
| 20260508135503 | 12 | 0 | 0.0 | 0.0 | 0.00 | 0.08 | 0.08 | 89 | 1028.5 |
| 20260508135004 | 12 | 0 | 0.0 | 0.0 | 0.00 | 0.08 | 0.08 | 89 | 1028.4 |
| 20260508134504 | 12 | 0 | 0.0 | 0.0 | 0.00 | 0.08 | 0.08 | 89 | 1028.5 |
| 20260508134003 | 12 | 0 | 0.0 | 0.0 | 0.00 | 0.08 | 0.08 | 89 | 1028.6 |
| 20260508133504 | 12 | 0 | 0.0 | 0.0 | 0.00 | 0.08 | 0.08 | 89 | 1028.6 |
| 20260508133004 | 12 | 0 | 0.0 | 0.0 | 0.00 | 0.08 | 0.08 | 89 | 1028.6 |
| 20260508132503 | 12 | 0 | 0.0 | 0.0 | 0.00 | 0.08 | 0.08 | 89 | 1028.7 |
| 20260508132004 | 12 | 0 | 0.0 | 0.0 | 0.00 | 0.08 | 0.08 | 89 | 1028.7 |
| 20260508131525 | 12 | 0 | 0.0 | 0.0 | 0.00 | 0.08 | 0.08 | 89 | 1028.7 |
| 20260508131004 | 12 | 0 | 0.0 | 0.0 | 0.00 | 0.08 | 0.08 | 89 | 1028.7 |
| 20260508130504 | 12 | 182 | 1.6 | 1.6 | 0.00 | 0.08 | 0.08 | 89 | 1028.7 |
| 20260508130004 | 12 | 182 | 1.6 | 4.8 | 0.00 | 0.08 | 0.08 | 89 | 1028.7 |
| 20260508125504 | 12 | 182 | 1.6 | 4.8 | 0.00 | 0.08 | 0.08 | 89 | 1028.8 |
| 20260508125004 | 12 | 182 | 0.0 | 4.8 | 0.00 | 0.08 | 0.08 | 88 | 1028.8 |
| 20260508124525 | 12 | 182 | 0.0 | 4.8 | 0.00 | 0.08 | 0.08 | 88 | 1028.8 |
| 20260508124025 | 12 | 0 | 0.0 | 0.0 | 0.00 | 0.08 | 0.08 | 88 | 1028.9 |
| 20260508123525 | 12 | 180 | 1.6 | 4.8 | 0.00 | 0.08 | 0.08 | 88 | 1028.9 |
| 20260508123004 | 12 | 180 | 1.6 | 4.8 | 0.00 | 0.08 | 0.08 | 88 | 1028.9 |
| 20260508122504 | 12 | 180 | 4.8 | 4.8 | 0.00 | 0.08 | 0.08 | 88 | 1028.8 |
| 20260508122003 | 12 | 184 | 4.8 | 4.8 | 0.00 | 0.08 | 0.08 | 88 | 1028.9 |
| 20260508121503 | 12 | 182 | 8.0 | 8.0 | 0.00 | 0.08 | 0.08 | 88 | 1028.9 |
| 20260508121003 | 12 | 191 | 8.0 | 8.0 | 0.00 | 0.08 | 0.08 | 87 | 1028.9 |
| 20260508120525 | 12 | 204 | 0.0 | 6.4 | 0.00 | 0.08 | 0.08 | 87 | 1028.9 |
| 20260508120025 | 12 | 0 | 0.0 | 0.0 | 0.00 | 0.08 | 0.08 | 87 | 1028.9 |
| 20260508115504 | 12 | 0 | 0.0 | 0.0 | 0.00 | 0.08 | 0.08 | 87 | 1028.9 |
| 20260508115004 | 12 | 0 | 0.0 | 0.0 | 0.00 | 0.08 | 0.08 | 86 | 1028.9 |
| 20260508114503 | 12 | 0 | 0.0 | 0.0 | 0.00 | 0.08 | 0.08 | 86 | 1028.9 |
| 20260508114004 | 12 | 0 | 0.0 | 0.0 | 0.00 | 0.08 | 0.08 | 86 | 1028.9 |
| 20260508113525 | 12 | 0 | 0.0 | 8.0 | 0.00 | 0.08 | 0.08 | 86 | 1028.9 |
| 20260508113004 | 12 | 0 | 1.6 | 8.0 | 0.00 | 0.08 | 0.08 | 85 | 1028.9 |
| 20260508112524 | 12 | 136 | 3.2 | 6.4 | 0.00 | 0.08 | 0.08 | 85 | 1028.9 |
| 20260508112024 | 12 | 134 | 1.6 | 8.0 | 0.00 | 0.08 | 0.08 | 85 | 1028.9 |
| 20260508111504 | 12 | 134 | 0.0 | 8.0 | 0.00 | 0.08 | 0.08 | 84 | 1028.9 |
| 20260508111004 | 12 | 191 | 0.0 | 4.8 | 0.00 | 0.08 | 0.08 | 84 | 1028.8 |
| 20260508110504 | 12 | 191 | 0.0 | 4.8 | 0.00 | 0.08 | 0.08 | 84 | 1028.8 |
| 20260508110004 | 12 | 0 | 1.6 | 0.0 | 0.00 | 0.08 | 0.08 | 84 | 1028.7 |
| 20260508105503 | 13 | 191 | 1.6 | 9.7 | 0.00 | 0.08 | 0.08 | 84 | 1028.8 |
| 20260508105004 | 13 | 194 | 1.6 | 12.9 | 0.00 | 0.08 | 0.08 | 83 | 1028.7 |
| 20260508104504 | 13 | 193 | 1.6 | 12.9 | 0.00 | 0.08 | 0.08 | 83 | 1028.7 |
| 20260508104003 | 13 | 166 | 4.8 | 12.9 | 0.00 | 0.08 | 0.08 | 83 | 1028.6 |
| 20260508103503 | 13 | 171 | 4.8 | 16.1 | 0.00 | 0.08 | 0.08 | 83 | 1028.6 |
| 20260508103003 | 13 | 176 | 4.8 | 16.1 | 0.00 | 0.08 | 0.08 | 84 | 1028.7 |
| 20260508102504 | 13 | 180 | 6.4 | 14.5 | 0.00 | 0.08 | 0.08 | 84 | 1028.7 |
| 20260508102025 | 13 | 184 | 6.4 | 14.5 | 0.00 | 0.08 | 0.08 | 84 | 1028.7 |
| 20260508101503 | 13 | 188 | 6.4 | 16.1 | 0.00 | 0.08 | 0.08 | 84 | 1028.6 |
| 20260508101024 | 13 | 188 | 8.0 | 16.1 | 0.00 | 0.08 | 0.08 | 85 | 1028.6 |
| 20260508100504 | 13 | 187 | 8.0 | 16.1 | 0.00 | 0.08 | 0.08 | 85 | 1028.6 |
| 20260508100004 | 13 | 185 | 8.0 | 16.1 | 0.00 | 0.08 | 0.08 | 85 | 1028.6 |
| 20260508095503 | 13 | 187 | 9.7 | 16.1 | 0.00 | 0.08 | 0.08 | 86 | 1028.5 |
| 20260508095024 | 13 | 192 | 9.7 | 16.1 | 0.00 | 0.08 | 0.08 | 86 | 1028.5 |
| 20260508094525 | 13 | 188 | 8.0 | 16.1 | 0.00 | 0.08 | 0.08 | 86 | 1028.5 |
| 20260508094003 | 13 | 186 | 8.0 | 16.1 | 0.00 | 0.08 | 0.08 | 86 | 1028.5 |
| 20260508093503 | 13 | 190 | 8.0 | 16.1 | 0.00 | 0.08 | 0.08 | 85 | 1028.5 |
| 20260508093004 | 13 | 192 | 8.0 | 17.7 | 0.00 | 0.08 | 0.08 | 85 | 1028.4 |
| 20260508092503 | 14 | 193 | 9.7 | 17.7 | 0.00 | 0.08 | 0.08 | 85 | 1028.4 |
| 20260508092004 | 14 | 198 | 9.7 | 17.7 | 0.00 | 0.08 | 0.08 | 85 | 1028.3 |
| 20260508091503 | 14 | 204 | 9.7 | 17.7 | 0.00 | 0.08 | 0.08 | 85 | 1028.3 |
| 20260508091004 | 14 | 205 | 9.7 | 22.5 | 0.00 | 0.08 | 0.08 | 85 | 1028.4 |
| 20260508090504 | 14 | 206 | 9.7 | 22.5 | 0.00 | 0.08 | 0.08 | 84 | 1028.4 |
| 20260508090003 | 14 | 205 | 9.7 | 20.9 | 0.00 | 0.08 | 0.08 | 84 | 1028.4 |
| 20260508085524 | 14 | 204 | 9.7 | 16.1 | 0.00 | 0.08 | 0.08 | 84 | 1028.3 |
| 20260508085003 | 15 | 207 | 9.7 | 14.5 | 0.00 | 0.08 | 0.08 | 83 | 1028.3 |
| 20260508084503 | 15 | 212 | 9.7 | 16.1 | 0.00 | 0.08 | 0.08 | 83 | 1028.3 |
| 20260508084003 | 15 | 217 | 9.7 | 22.5 | 0.00 | 0.08 | 0.08 | 83 | 1028.2 |
| 20260508083525 | 15 | 215 | 8.0 | 22.5 | 0.00 | 0.08 | 0.08 | 82 | 1028.2 |
| 20260508083024 | 15 | 213 | 9.7 | 22.5 | 0.00 | 0.08 | 0.08 | 82 | 1028.2 |
| 20260508082525 | 15 | 215 | 9.7 | 17.7 | 0.00 | 0.08 | 0.08 | 82 | 1028.2 |
| 20260508082003 | 15 | 219 | 8.0 | 17.7 | 0.00 | 0.08 | 0.08 | 81 | 1028.1 |
| 20260508081504 | 15 | 223 | 11.3 | 16.1 | 0.00 | 0.08 | 0.08 | 80 | 1028.1 |
| 20260508081004 | 15 | 223 | 14.5 | 24.1 | 0.00 | 0.08 | 0.08 | 80 | 1028.0 |
| 20260508080503 | 15 | 220 | 14.5 | 27.4 | 0.00 | 0.08 | 0.08 | 79 | 1028.0 |
| 20260508080004 | 16 | 217 | 14.5 | 27.4 | 0.00 | 0.08 | 0.08 | 79 | 1027.9 |
| 20260508075503 | 16 | 217 | 12.9 | 27.4 | 0.00 | 0.08 | 0.08 | 79 | 1027.9 |
| 20260508075004 | 16 | 221 | 11.3 | 27.4 | 0.00 | 0.08 | 0.08 | 79 | 1027.9 |
| 20260508074525 | 16 | 226 | 9.7 | 27.4 | 0.00 | 0.08 | 0.08 | 80 | 1027.9 |
| 20260508074003 | 16 | 222 | 9.7 | 22.5 | 0.00 | 0.08 | 0.08 | 80 | 1027.8 |
| 20260508073503 | 16 | 215 | 9.7 | 16.1 | 0.00 | 0.08 | 0.08 | 79 | 1027.8 |
| 20260508073003 | 16 | 219 | 11.3 | 20.9 | 0.00 | 0.08 | 0.08 | 80 | 1027.8 |
| 20260508072504 | 16 | 222 | 12.9 | 24.1 | 0.00 | 0.08 | 0.08 | 80 | 1027.8 |
| 20260508072004 | 16 | 220 | 14.5 | 27.4 | 0.00 | 0.08 | 0.08 | 80 | 1027.8 |
| 20260508071525 | 16 | 220 | 14.5 | 27.4 | 0.00 | 0.08 | 0.08 | 80 | 1027.8 |
| 20260508071025 | 16 | 228 | 16.1 | 29.0 | 0.00 | 0.08 | 0.08 | 80 | 1027.8 |
| 20260508070504 | 16 | 235 | 17.7 | 30.6 | 0.00 | 0.08 | 0.08 | 79 | 1027.8 |
| 20260508070004 | 16 | 233 | 16.1 | 30.6 | 0.00 | 0.08 | 0.08 | 78 | 1027.8 |
| 20260508065504 | 16 | 233 | 14.5 | 30.6 | 0.00 | 0.08 | 0.08 | 77 | 1027.9 |
| 20260508065004 | 16 | 234 | 14.5 | 30.6 | 0.00 | 0.08 | 0.08 | 77 | 1027.9 |
| 20260508064504 | 17 | 219 | 14.5 | 27.4 | 0.00 | 0.08 | 0.08 | 77 | 1027.8 |
| 20260508064004 | 17 | 212 | 14.5 | 30.6 | 0.00 | 0.08 | 0.08 | 77 | 1027.8 |
| 20260508063504 | 17 | 218 | 14.5 | 30.6 | 0.00 | 0.08 | 0.08 | 76 | 1027.7 |
| 20260508063004 | 17 | 217 | 14.5 | 24.1 | 0.00 | 0.08 | 0.08 | 76 | 1027.8 |
| 20260508062504 | 17 | 209 | 14.5 | 24.1 | 0.00 | 0.08 | 0.08 | 75 | 1027.8 |
| 20260508062004 | 17 | 206 | 14.5 | 29.0 | 0.00 | 0.08 | 0.08 | 75 | 1027.8 |
| 20260508061504 | 17 | 208 | 14.5 | 30.6 | 0.00 | 0.08 | 0.08 | 74 | 1027.8 |
| 20260508061004 | 17 | 213 | 14.5 | 30.6 | 0.00 | 0.08 | 0.08 | 75 | 1027.7 |
| 20260508060504 | 17 | 216 | 16.1 | 24.1 | 0.00 | 0.08 | 0.08 | 74 | 1027.7 |
| 20260508060004 | 17 | 226 | 16.1 | 24.1 | 0.00 | 0.08 | 0.08 | 75 | 1027.7 |
| 20260508055504 | 17 | 234 | 16.1 | 30.6 | 0.00 | 0.08 | 0.08 | 76 | 1027.7 |
| 20260508055004 | 17 | 229 | 16.1 | 30.6 | 0.00 | 0.08 | 0.08 | 75 | 1027.8 |
| 20260508054525 | 17 | 219 | 14.5 | 29.0 | 0.00 | 0.08 | 0.08 | 75 | 1027.7 |
| 20260508054004 | 17 | 216 | 14.5 | 29.0 | 0.00 | 0.08 | 0.08 | 74 | 1027.7 |
| 20260508053504 | 17 | 227 | 14.5 | 27.4 | 0.00 | 0.08 | 0.08 | 75 | 1027.7 |
| 20260508053004 | 17 | 229 | 14.5 | 24.1 | 0.00 | 0.08 | 0.08 | 75 | 1027.7 |
| 20260508052504 | 17 | 217 | 16.1 | 29.0 | 0.00 | 0.08 | 0.08 | 74 | 1027.7 |
| 20260508052004 | 17 | 216 | 16.1 | 30.6 | 0.00 | 0.08 | 0.08 | 73 | 1027.8 |
| 20260508051504 | 18 | 225 | 14.5 | 30.6 | 0.00 | 0.08 | 0.08 | 72 | 1027.8 |
| 20260508051025 | 18 | 230 | 14.5 | 29.0 | 0.00 | 0.08 | 0.08 | 75 | 1027.9 |
| 20260508050525 | 17 | 222 | 12.9 | 29.0 | 0.00 | 0.08 | 0.08 | 79 | 1027.7 |
| 20260508050004 | 17 | 221 | 12.9 | 29.0 | 0.00 | 0.08 | 0.08 | 79 | 1027.9 |
| 20260508045504 | 17 | 231 | 14.5 | 20.9 | 0.00 | 0.08 | 0.08 | 80 | 1028.0 |
| 20260508045010 | 17 | 235 | 16.1 | 29.0 | 0.03 | 0.08 | 0.08 | 81 | 1028.0 |
| 20260508044504 | 17 | 238 | 14.5 | 30.6 | 0.03 | 0.08 | 0.08 | 82 | 1028.0 |
| 20260508044025 | 17 | 237 | 11.3 | 30.6 | 0.03 | 0.08 | 0.08 | 83 | 1028.1 |
| 20260508043504 | 17 | 233 | 12.9 | 20.9 | 0.03 | 0.08 | 0.08 | 86 | 1028.1 |
| 20260508043004 | 16 | 224 | 12.9 | 24.1 | 0.05 | 0.08 | 0.08 | 88 | 1028.1 |
| 20260508042525 | 16 | 217 | 12.9 | 24.1 | 0.05 | 0.08 | 0.08 | 88 | 1028.2 |
| 20260508042004 | 15 | 216 | 12.9 | 22.5 | 0.05 | 0.08 | 0.08 | 88 | 1028.2 |
| 20260508041504 | 15 | 220 | 12.9 | 29.0 | 0.05 | 0.08 | 0.08 | 88 | 1028.2 |
| 20260508041005 | 16 | 228 | 14.5 | 29.0 | 0.05 | 0.08 | 0.08 | 88 | 1028.4 |
| 20260508040504 | 15 | 238 | 16.1 | 29.0 | 0.05 | 0.08 | 0.08 | 87 | 1028.4 |
| 20260508040004 | 15 | 233 | 16.1 | 29.0 | 0.05 | 0.08 | 0.08 | 87 | 1028.4 |
| 20260508035504 | 16 | 232 | 12.9 | 29.0 | 0.05 | 0.08 | 0.08 | 87 | 1028.5 |
| 20260508035004 | 16 | 233 | 12.9 | 29.0 | 0.05 | 0.05 | 0.05 | 87 | 1028.4 |
| 20260508034504 | 16 | 237 | 14.5 | 27.4 | 0.05 | 0.05 | 0.05 | 87 | 1028.5 |
| 20260508034004 | 16 | 241 | 12.9 | 27.4 | 0.05 | 0.05 | 0.05 | 87 | 1028.7 |
| 20260508033504 | 16 | 225 | 11.3 | 27.4 | 0.05 | 0.05 | 0.05 | 86 | 1028.7 |
| 20260508033025 | 16 | 219 | 9.7 | 20.9 | 0.03 | 0.05 | 0.05 | 87 | 1028.7 |
| 20260508032504 | 16 | 223 | 9.7 | 17.7 | 0.03 | 0.05 | 0.05 | 87 | 1028.8 |
| 20260508032004 | 15 | 226 | 11.3 | 17.7 | 0.03 | 0.05 | 0.05 | 87 | 1028.8 |
| 20260508031504 | 16 | 226 | 12.9 | 22.5 | 0.03 | 0.05 | 0.05 | 87 | 1028.8 |
| 20260508031025 | 16 | 221 | 14.5 | 27.4 | 0.03 | 0.05 | 0.05 | 87 | 1028.9 |
| 20260508030504 | 15 | 224 | 14.5 | 29.0 | 0.05 | 0.05 | 0.05 | 86 | 1029.0 |
| 20260508030004 | 15 | 229 | 12.9 | 29.0 | 0.05 | 0.05 | 0.05 | 85 | 1029.1 |
| 20260508025504 | 16 | 240 | 12.9 | 24.1 | 0.03 | 0.03 | 0.03 | 85 | 1029.1 |
| 20260508025025 | 16 | 241 | 12.9 | 20.9 | 0.03 | 0.03 | 0.03 | 85 | 1029.1 |
| 20260508024504 | 16 | 230 | 12.9 | 24.1 | 0.03 | 0.03 | 0.03 | 85 | 1029.2 |
| 20260508024004 | 16 | 230 | 14.5 | 24.1 | 0.03 | 0.03 | 0.03 | 88 | 1029.3 |
| 20260508023504 | 15 | 229 | 12.9 | 24.1 | 0.03 | 0.03 | 0.03 | 87 | 1029.4 |
| 20260508023004 | 15 | 232 | 11.3 | 24.1 | 0.03 | 0.03 | 0.03 | 86 | 1029.5 |
| 20260508022504 | 15 | 240 | 11.3 | 22.5 | 0.03 | 0.03 | 0.03 | 86 | 1029.4 |
| 20260508022004 | 15 | 241 | 12.9 | 22.5 | 0.03 | 0.03 | 0.03 | 86 | 1029.5 |
| 20260508021504 | 15 | 232 | 14.5 | 27.4 | 0.03 | 0.03 | 0.03 | 86 | 1029.6 |
| 20260508021003 | 15 | 226 | 12.9 | 27.4 | 0.03 | 0.03 | 0.03 | 85 | 1029.7 |
| 20260508020504 | 15 | 227 | 12.9 | 24.1 | 0.00 | 0.00 | 0.00 | 83 | 1029.7 |
| 20260508020004 | 16 | 230 | 12.9 | 20.9 | 0.00 | 0.00 | 0.00 | 83 | 1029.7 |
| 20260508015525 | 16 | 223 | 11.3 | 27.4 | 0.00 | 0.00 | 0.00 | 84 | 1029.7 |
| 20260508015004 | 16 | 219 | 9.7 | 27.4 | 0.00 | 0.00 | 0.00 | 86 | 1029.8 |
| 20260508014504 | 15 | 223 | 9.7 | 22.5 | 0.00 | 0.00 | 0.00 | 87 | 1029.9 |
| 20260508014004 | 15 | 220 | 9.7 | 20.9 | 0.00 | 0.00 | 0.00 | 86 | 1030.0 |